owner,sensor,date,latitude,longitude,air_pressure(mBar),qcFlag 
LUMCON,ioos:station:LUMCON:101:1,2007-01-02T15:00:00Z,29.2533,-90.6633,1026.9,11111222 
LUMCON,ioos:station:LUMCON:101:1,2007-01-02T16:00:00Z,29.2533,-90.6633,1027.5,11111222 
LUMCON,ioos:station:LUMCON:101:1,2007-01-02T17:00:00Z,29.2533,-90.6633,1027.1,11111222 
LUMCON,ioos:station:LUMCON:101:1,2007-01-02T18:00:00Z,29.2533,-90.6633,1025.4,11111222 
LUMCON,ioos:station:LUMCON:101:1,2007-01-02T19:00:00Z,29.2533,-90.6633,1024.7,11111222 
LUMCON,ioos:station:LUMCON:101:1,2007-01-02T20:00:00Z,29.2533,-90.6633,1025.0,11111222 
LUMCON,ioos:station:LUMCON:101:1,2007-01-02T21:00:00Z,29.2533,-90.6633,1024.5,11111222 
LUMCON,ioos:station:LUMCON:101:1,2007-01-02T22:00:00Z,29.2533,-90.6633,1024.8,11111222 
LUMCON,ioos:station:LUMCON:101:1,2007-01-02T23:00:00Z,29.2533,-90.6633,1025.0,11111222 
LUMCON,ioos:station:LUMCON:101:1,2007-01-03T00:00:00Z,29.2533,-90.6633,1025.2,11111222 
LUMCON,ioos:station:LUMCON:101:1,2007-01-03T01:00:00Z,29.2533,-90.6633,1026.0,11111222 
LUMCON,ioos:station:LUMCON:101:1,2007-01-03T02:00:00Z,29.2533,-90.6633,1026.4,11111222 
LUMCON,ioos:station:LUMCON:101:1,2007-01-03T03:00:00Z,29.2533,-90.6633,1026.1,11111222 
LUMCON,ioos:station:LUMCON:101:1,2007-01-03T04:00:00Z,29.2533,-90.6633,1025.6,11111222 
LUMCON,ioos:station:LUMCON:101:1,2007-01-03T05:00:00Z,29.2533,-90.6633,1025.5,11111222 
LUMCON,ioos:station:LUMCON:101:1,2007-01-03T06:00:00Z,29.2533,-90.6633,1025.2,11111222 
LUMCON,ioos:station:LUMCON:101:1,2007-01-03T07:00:00Z,29.2533,-90.6633,1025.1,11111222 
LUMCON,ioos:station:LUMCON:101:1,2007-01-03T08:00:00Z,29.2533,-90.6633,1025.2,11111222 
LUMCON,ioos:station:LUMCON:101:1,2007-01-03T09:00:00Z,29.2533,-90.6633,1024.7,11111222 
LUMCON,ioos:station:LUMCON:101:1,2007-01-03T10:00:00Z,29.2533,-90.6633,1024.7,11111222 
LUMCON,ioos:station:LUMCON:101:1,2007-01-03T11:00:00Z,29.2533,-90.6633,1024.5,11111222 
LUMCON,ioos:station:LUMCON:101:1,2007-01-03T12:00:00Z,29.2533,-90.6633,1024.4,11111222 
LUMCON,ioos:station:LUMCON:101:1,2007-01-03T13:00:00Z,29.2533,-90.6633,1025.5,11111222 
LUMCON,ioos:station:LUMCON:101:1,2007-01-03T14:00:00Z,29.2533,-90.6633,1025.8,11111222 
LUMCON,ioos:station:LUMCON:101:1,2007-01-03T15:00:00Z,29.2533,-90.6633,1026.2,11111222 
LUMCON,ioos:station:LUMCON:101:1,2007-01-03T16:00:00Z,29.2533,-90.6633,1026.5,11111222 
LUMCON,ioos:station:LUMCON:101:1,2007-01-03T17:00:00Z,29.2533,-90.6633,1026.4,11111222 
LUMCON,ioos:station:LUMCON:101:1,2007-01-03T18:00:00Z,29.2533,-90.6633,1025.7,11111222 
LUMCON,ioos:station:LUMCON:101:1,2007-01-03T19:00:00Z,29.2533,-90.6633,1024.3,11111222 
LUMCON,ioos:station:LUMCON:101:1,2007-01-03T20:00:00Z,29.2533,-90.6633,1023.7,11111222 
LUMCON,ioos:station:LUMCON:101:1,2007-01-03T21:00:00Z,29.2533,-90.6633,1023.1,11111222 
LUMCON,ioos:station:LUMCON:101:1,2007-01-03T22:00:00Z,29.2533,-90.6633,1023.2,11111222 
LUMCON,ioos:station:LUMCON:101:1,2007-01-03T23:00:00Z,29.2533,-90.6633,1023.5,11111222 
LUMCON,ioos:station:LUMCON:101:1,2007-01-04T00:00:00Z,29.2533,-90.6633,1023.4,11111222 
LUMCON,ioos:station:LUMCON:101:1,2007-01-04T01:00:00Z,29.2533,-90.6633,1022.9,11111222 
LUMCON,ioos:station:LUMCON:101:1,2007-01-04T02:00:00Z,29.2533,-90.6633,1022.4,11111222 
LUMCON,ioos:station:LUMCON:101:1,2007-01-04T03:00:00Z,29.2533,-90.6633,1021.3,11111222 
LUMCON,ioos:station:LUMCON:101:1,2007-01-04T04:00:00Z,29.2533,-90.6633,1020.8,11111222 
LUMCON,ioos:station:LUMCON:101:1,2007-01-04T05:00:00Z,29.2533,-90.6633,1021.4,11111222 
LUMCON,ioos:station:LUMCON:101:1,2007-01-04T06:00:00Z,29.2533,-90.6633,1020.2,11111222 
LUMCON,ioos:station:LUMCON:101:1,2007-01-04T07:00:00Z,29.2533,-90.6633,1019.3,11111222 
LUMCON,ioos:station:LUMCON:101:1,2007-01-04T08:00:00Z,29.2533,-90.6633,1018.1,11111222 
LUMCON,ioos:station:LUMCON:101:1,2007-01-04T09:00:00Z,29.2533,-90.6633,1017.4,11111222 
LUMCON,ioos:station:LUMCON:101:1,2007-01-04T10:00:00Z,29.2533,-90.6633,1018.0,11111222 
LUMCON,ioos:station:LUMCON:101:1,2007-01-04T11:00:00Z,29.2533,-90.6633,1017.1,11111222 
LUMCON,ioos:station:LUMCON:101:1,2007-01-04T12:00:00Z,29.2533,-90.6633,1016.3,11111222 
LUMCON,ioos:station:LUMCON:101:1,2007-01-04T13:00:00Z,29.2533,-90.6633,1016.7,11111222 
LUMCON,ioos:station:LUMCON:101:1,2007-01-04T14:00:00Z,29.2533,-90.6633,1016.5,11111222 
LUMCON,ioos:station:LUMCON:101:1,2007-01-04T15:00:00Z,29.2533,-90.6633,1016.0,11111222 
LUMCON,ioos:station:LUMCON:101:1,2007-01-04T16:00:00Z,29.2533,-90.6633,1015.7,11111222 
LUMCON,ioos:station:LUMCON:101:1,2007-01-04T17:00:00Z,29.2533,-90.6633,1014.5,11111222 
LUMCON,ioos:station:LUMCON:101:1,2007-01-04T19:00:00Z,29.2533,-90.6633,1011.8,11111222 
LUMCON,ioos:station:LUMCON:101:1,2007-01-04T20:00:00Z,29.2533,-90.6633,1011.3,11111222 
LUMCON,ioos:station:LUMCON:101:1,2007-01-04T21:00:00Z,29.2533,-90.6633,1010.3,11111222 
LUMCON,ioos:station:LUMCON:101:1,2007-01-04T22:00:00Z,29.2533,-90.6633,1010.1,11111222 
LUMCON,ioos:station:LUMCON:101:1,2007-01-04T23:00:00Z,29.2533,-90.6633,1010.0,11111222 
LUMCON,ioos:station:LUMCON:101:1,2007-01-05T00:00:00Z,29.2533,-90.6633,1009.8,11111222 
LUMCON,ioos:station:LUMCON:101:1,2007-01-05T01:00:00Z,29.2533,-90.6633,1009.0,11111222 
LUMCON,ioos:station:LUMCON:101:1,2007-01-05T02:00:00Z,29.2533,-90.6633,1011.0,11111222 
LUMCON,ioos:station:LUMCON:101:1,2007-01-05T03:00:00Z,29.2533,-90.6633,1010.5,11111222 
LUMCON,ioos:station:LUMCON:101:1,2007-01-05T04:00:00Z,29.2533,-90.6633,1011.3,11111222 
LUMCON,ioos:station:LUMCON:101:1,2007-01-05T05:00:00Z,29.2533,-90.6633,1011.3,11111222 
LUMCON,ioos:station:LUMCON:101:1,2007-01-05T06:00:00Z,29.2533,-90.6633,1010.1,11111222 
LUMCON,ioos:station:LUMCON:101:1,2007-01-05T07:00:00Z,29.2533,-90.6633,1009.9,11111222 
LUMCON,ioos:station:LUMCON:101:1,2007-01-05T08:00:00Z,29.2533,-90.6633,1010.1,11111222 
LUMCON,ioos:station:LUMCON:101:1,2007-01-05T09:00:00Z,29.2533,-90.6633,1010.0,11111222 
LUMCON,ioos:station:LUMCON:101:1,2007-01-05T10:00:00Z,29.2533,-90.6633,1010.2,11111222 
LUMCON,ioos:station:LUMCON:101:1,2007-01-05T11:00:00Z,29.2533,-90.6633,1010.3,11111222 
LUMCON,ioos:station:LUMCON:101:1,2007-01-05T12:00:00Z,29.2533,-90.6633,1010.4,11111222 
LUMCON,ioos:station:LUMCON:101:1,2007-01-05T13:00:00Z,29.2533,-90.6633,1010.1,11111222 
LUMCON,ioos:station:LUMCON:101:1,2007-01-05T14:00:00Z,29.2533,-90.6633,1011.7,11111222 
LUMCON,ioos:station:LUMCON:101:1,2007-01-05T15:00:00Z,29.2533,-90.6633,1012.9,11111222 
LUMCON,ioos:station:LUMCON:101:1,2007-01-06T00:00:00Z,29.2533,-90.6633,1012.1,11111222 
LUMCON,ioos:station:LUMCON:101:1,2007-01-06T01:00:00Z,29.2533,-90.6633,1012.4,11111222 
LUMCON,ioos:station:LUMCON:101:1,2007-01-06T02:00:00Z,29.2533,-90.6633,1012.7,11111222 
LUMCON,ioos:station:LUMCON:101:1,2007-01-06T03:00:00Z,29.2533,-90.6633,1012.7,11111222 
LUMCON,ioos:station:LUMCON:101:1,2007-01-06T04:00:00Z,29.2533,-90.6633,1012.4,11111222 
LUMCON,ioos:station:LUMCON:101:1,2007-01-06T05:00:00Z,29.2533,-90.6633,1012.7,11111222 
LUMCON,ioos:station:LUMCON:101:1,2007-01-06T06:00:00Z,29.2533,-90.6633,1013.0,11111222 
LUMCON,ioos:station:LUMCON:101:1,2007-01-06T07:00:00Z,29.2533,-90.6633,1013.0,11111222 
LUMCON,ioos:station:LUMCON:101:1,2007-01-06T08:00:00Z,29.2533,-90.6633,1013.3,11111222 
LUMCON,ioos:station:LUMCON:101:1,2007-01-06T09:00:00Z,29.2533,-90.6633,1013.8,11111222 
LUMCON,ioos:station:LUMCON:101:1,2007-01-06T10:00:00Z,29.2533,-90.6633,1014.0,11111222 
LUMCON,ioos:station:LUMCON:101:1,2007-01-06T11:00:00Z,29.2533,-90.6633,1014.2,11111222 
LUMCON,ioos:station:LUMCON:101:1,2007-01-06T12:00:00Z,29.2533,-90.6633,1014.8,11111222 
LUMCON,ioos:station:LUMCON:101:1,2007-01-06T13:00:00Z,29.2533,-90.6633,1015.2,11111222 
LUMCON,ioos:station:LUMCON:101:1,2007-01-06T14:00:00Z,29.2533,-90.6633,1015.9,11111222 
LUMCON,ioos:station:LUMCON:101:1,2007-01-06T15:00:00Z,29.2533,-90.6633,1016.5,11111222 
LUMCON,ioos:station:LUMCON:101:1,2007-01-06T16:00:00Z,29.2533,-90.6633,1017.8,11111222 
LUMCON,ioos:station:LUMCON:101:1,2007-01-06T17:00:00Z,29.2533,-90.6633,1017.5,11111222 
LUMCON,ioos:station:LUMCON:101:1,2007-01-06T18:00:00Z,29.2533,-90.6633,1017.0,11111222 
LUMCON,ioos:station:LUMCON:101:1,2007-01-06T19:00:00Z,29.2533,-90.6633,1016.0,11111222 
LUMCON,ioos:station:LUMCON:101:1,2007-01-06T20:00:00Z,29.2533,-90.6633,1015.8,11111222 
LUMCON,ioos:station:LUMCON:101:1,2007-01-06T21:00:00Z,29.2533,-90.6633,1015.0,11111222 
LUMCON,ioos:station:LUMCON:101:1,2007-01-06T22:00:00Z,29.2533,-90.6633,1015.5,11111222 
LUMCON,ioos:station:LUMCON:101:1,2007-01-06T23:00:00Z,29.2533,-90.6633,1015.6,11111222 
LUMCON,ioos:station:LUMCON:101:1,2007-01-07T00:00:00Z,29.2533,-90.6633,1015.8,11111222 
LUMCON,ioos:station:LUMCON:101:1,2007-01-07T01:00:00Z,29.2533,-90.6633,1015.8,11111222 
LUMCON,ioos:station:LUMCON:101:1,2007-01-07T02:00:00Z,29.2533,-90.6633,1016.0,11111222 
LUMCON,ioos:station:LUMCON:101:1,2007-01-07T03:00:00Z,29.2533,-90.6633,1016.1,11111222 
LUMCON,ioos:station:LUMCON:101:1,2007-01-07T04:00:00Z,29.2533,-90.6633,1016.6,11111222 
LUMCON,ioos:station:LUMCON:101:1,2007-01-07T05:00:00Z,29.2533,-90.6633,1016.2,11111222 
LUMCON,ioos:station:LUMCON:101:1,2007-01-07T06:00:00Z,29.2533,-90.6633,1016.1,11111222 
LUMCON,ioos:station:LUMCON:101:1,2007-01-07T07:00:00Z,29.2533,-90.6633,1015.7,11111222 
LUMCON,ioos:station:LUMCON:101:1,2007-01-07T08:00:00Z,29.2533,-90.6633,1015.9,11111222 
LUMCON,ioos:station:LUMCON:101:1,2007-01-07T09:00:00Z,29.2533,-90.6633,1016.0,11111222 
LUMCON,ioos:station:LUMCON:101:1,2007-01-07T10:00:00Z,29.2533,-90.6633,1015.9,11111222 
LUMCON,ioos:station:LUMCON:101:1,2007-01-07T11:00:00Z,29.2533,-90.6633,1016.4,11111222 
LUMCON,ioos:station:LUMCON:101:1,2007-01-08T22:00:00Z,29.2533,-90.6633,1024.3,11111222 
LUMCON,ioos:station:LUMCON:101:1,2007-01-08T23:00:00Z,29.2533,-90.6633,1024.6,11111222 
LUMCON,ioos:station:LUMCON:101:1,2007-01-09T00:00:00Z,29.2533,-90.6633,1025.0,11111222 
LUMCON,ioos:station:LUMCON:101:1,2007-01-09T01:00:00Z,29.2533,-90.6633,1025.3,11111222 
LUMCON,ioos:station:LUMCON:101:1,2007-01-09T02:00:00Z,29.2533,-90.6633,1025.7,11111222 
LUMCON,ioos:station:LUMCON:101:1,2007-01-09T03:00:00Z,29.2533,-90.6633,1026.5,11111222 
LUMCON,ioos:station:LUMCON:101:1,2007-01-09T04:00:00Z,29.2533,-90.6633,1026.9,11111222 
LUMCON,ioos:station:LUMCON:101:1,2007-01-09T05:00:00Z,29.2533,-90.6633,1027.1,11111222 
LUMCON,ioos:station:LUMCON:101:1,2007-01-09T06:00:00Z,29.2533,-90.6633,1027.0,11111222 
LUMCON,ioos:station:LUMCON:101:1,2007-01-09T07:00:00Z,29.2533,-90.6633,1027.1,11111222 
LUMCON,ioos:station:LUMCON:101:1,2007-01-09T08:00:00Z,29.2533,-90.6633,1027.3,11111222 
LUMCON,ioos:station:LUMCON:101:1,2007-01-09T09:00:00Z,29.2533,-90.6633,1027.1,11111222 
LUMCON,ioos:station:LUMCON:101:1,2007-01-09T10:00:00Z,29.2533,-90.6633,1027.5,11111222 
LUMCON,ioos:station:LUMCON:101:1,2007-01-09T11:00:00Z,29.2533,-90.6633,1028.4,11111222 
LUMCON,ioos:station:LUMCON:101:1,2007-01-09T12:00:00Z,29.2533,-90.6633,1029.0,11111222 
LUMCON,ioos:station:LUMCON:101:1,2007-01-09T13:00:00Z,29.2533,-90.6633,1029.5,11111222 
LUMCON,ioos:station:LUMCON:101:1,2007-01-09T14:00:00Z,29.2533,-90.6633,1030.1,11111222 
LUMCON,ioos:station:LUMCON:101:1,2007-01-09T15:00:00Z,29.2533,-90.6633,1030.7,11111222 
LUMCON,ioos:station:LUMCON:101:1,2007-01-09T16:00:00Z,29.2533,-90.6633,1030.8,11111222 
LUMCON,ioos:station:LUMCON:101:1,2007-01-09T17:00:00Z,29.2533,-90.6633,1030.3,11111222 
LUMCON,ioos:station:LUMCON:101:1,2007-01-09T18:00:00Z,29.2533,-90.6633,1029.1,11111222 
LUMCON,ioos:station:LUMCON:101:1,2007-01-09T19:00:00Z,29.2533,-90.6633,1028.1,11111222 
LUMCON,ioos:station:LUMCON:101:1,2007-01-09T20:00:00Z,29.2533,-90.6633,1027.2,11111222 
LUMCON,ioos:station:LUMCON:101:1,2007-01-09T21:00:00Z,29.2533,-90.6633,1026.7,11111222 
LUMCON,ioos:station:LUMCON:101:1,2007-01-09T22:00:00Z,29.2533,-90.6633,1026.9,11111222 
LUMCON,ioos:station:LUMCON:101:1,2007-01-09T23:00:00Z,29.2533,-90.6633,1027.3,11111222 
LUMCON,ioos:station:LUMCON:101:1,2007-01-10T00:00:00Z,29.2533,-90.6633,1027.8,11111222 
LUMCON,ioos:station:LUMCON:101:1,2007-01-10T01:00:00Z,29.2533,-90.6633,1028.3,11111222 
LUMCON,ioos:station:LUMCON:101:1,2007-01-10T02:00:00Z,29.2533,-90.6633,1028.8,11111222 
LUMCON,ioos:station:LUMCON:101:1,2007-01-10T03:00:00Z,29.2533,-90.6633,1029.1,11111222 
LUMCON,ioos:station:LUMCON:101:1,2007-01-10T04:00:00Z,29.2533,-90.6633,1029.5,11111222 
LUMCON,ioos:station:LUMCON:101:1,2007-01-10T05:00:00Z,29.2533,-90.6633,1029.8,11111222 
LUMCON,ioos:station:LUMCON:101:1,2007-01-10T06:00:00Z,29.2533,-90.6633,1029.5,11111222 
LUMCON,ioos:station:LUMCON:101:1,2007-01-10T07:00:00Z,29.2533,-90.6633,1029.5,11111222 
LUMCON,ioos:station:LUMCON:101:1,2007-01-10T08:00:00Z,29.2533,-90.6633,1029.2,11111222 
LUMCON,ioos:station:LUMCON:101:1,2007-01-10T09:00:00Z,29.2533,-90.6633,1028.8,11111222 
LUMCON,ioos:station:LUMCON:101:1,2007-01-10T10:00:00Z,29.2533,-90.6633,1028.7,11111222 
LUMCON,ioos:station:LUMCON:101:1,2007-01-10T11:00:00Z,29.2533,-90.6633,1029.1,11111222 
LUMCON,ioos:station:LUMCON:101:1,2007-01-10T12:00:00Z,29.2533,-90.6633,1029.1,11111222 
LUMCON,ioos:station:LUMCON:101:1,2007-01-10T13:00:00Z,29.2533,-90.6633,1029.0,11111222 
LUMCON,ioos:station:LUMCON:101:1,2007-01-10T14:00:00Z,29.2533,-90.6633,1029.7,11111222 
LUMCON,ioos:station:LUMCON:101:1,2007-01-10T15:00:00Z,29.2533,-90.6633,1030.1,11111222 
LUMCON,ioos:station:LUMCON:101:1,2007-01-10T16:00:00Z,29.2533,-90.6633,1030.7,11111222 
LUMCON,ioos:station:LUMCON:101:1,2007-01-10T17:00:00Z,29.2533,-90.6633,1030.0,11111222 
LUMCON,ioos:station:LUMCON:101:1,2007-01-10T18:00:00Z,29.2533,-90.6633,1029.0,11111222 
LUMCON,ioos:station:LUMCON:101:1,2007-01-10T19:00:00Z,29.2533,-90.6633,1028.4,11111222 
LUMCON,ioos:station:LUMCON:101:1,2007-01-10T20:00:00Z,29.2533,-90.6633,1028.0,11111222 
LUMCON,ioos:station:LUMCON:101:1,2007-01-10T21:00:00Z,29.2533,-90.6633,1027.4,11111222 
LUMCON,ioos:station:LUMCON:101:1,2007-01-10T22:00:00Z,29.2533,-90.6633,1027.0,11111222 
LUMCON,ioos:station:LUMCON:101:1,2007-01-10T23:00:00Z,29.2533,-90.6633,1027.2,11111222 
LUMCON,ioos:station:LUMCON:101:1,2007-01-11T00:00:00Z,29.2533,-90.6633,1027.1,11111222 
LUMCON,ioos:station:LUMCON:101:1,2007-01-11T01:00:00Z,29.2533,-90.6633,1026.5,11111222 
LUMCON,ioos:station:LUMCON:101:1,2007-01-11T02:00:00Z,29.2533,-90.6633,1026.4,11111222 
LUMCON,ioos:station:LUMCON:101:1,2007-01-11T03:00:00Z,29.2533,-90.6633,1026.3,11111222 
LUMCON,ioos:station:LUMCON:101:1,2007-01-11T04:00:00Z,29.2533,-90.6633,1026.2,11111222 
LUMCON,ioos:station:LUMCON:101:1,2007-01-11T05:00:00Z,29.2533,-90.6633,1026.3,11111222 
LUMCON,ioos:station:LUMCON:101:1,2007-01-11T06:00:00Z,29.2533,-90.6633,1025.7,11111222 
LUMCON,ioos:station:LUMCON:101:1,2007-01-11T07:00:00Z,29.2533,-90.6633,1025.4,11111222 
LUMCON,ioos:station:LUMCON:101:1,2007-01-11T08:00:00Z,29.2533,-90.6633,1025.1,11111222 
LUMCON,ioos:station:LUMCON:101:1,2007-01-11T09:00:00Z,29.2533,-90.6633,1025.1,11111222 
LUMCON,ioos:station:LUMCON:101:1,2007-01-11T10:00:00Z,29.2533,-90.6633,1024.7,11111222 
LUMCON,ioos:station:LUMCON:101:1,2007-01-11T11:00:00Z,29.2533,-90.6633,1024.8,11111222 
LUMCON,ioos:station:LUMCON:101:1,2007-01-11T12:00:00Z,29.2533,-90.6633,1025.0,11111222 
LUMCON,ioos:station:LUMCON:101:1,2007-01-11T13:00:00Z,29.2533,-90.6633,1025.0,11111222 
LUMCON,ioos:station:LUMCON:101:1,2007-01-11T14:00:00Z,29.2533,-90.6633,1025.4,11111222 
LUMCON,ioos:station:LUMCON:101:1,2007-01-11T15:00:00Z,29.2533,-90.6633,1026.1,11111222 
LUMCON,ioos:station:LUMCON:101:1,2007-01-11T16:00:00Z,29.2533,-90.6633,1026.7,11111222 
LUMCON,ioos:station:LUMCON:101:1,2007-01-11T17:00:00Z,29.2533,-90.6633,1026.3,11111222 
LUMCON,ioos:station:LUMCON:101:1,2007-01-11T18:00:00Z,29.2533,-90.6633,1025.5,11111222 
LUMCON,ioos:station:LUMCON:101:1,2007-01-11T19:00:00Z,29.2533,-90.6633,1024.5,11111222 
LUMCON,ioos:station:LUMCON:101:1,2007-01-11T20:00:00Z,29.2533,-90.6633,1023.7,11111222 
LUMCON,ioos:station:LUMCON:101:1,2007-01-11T21:00:00Z,29.2533,-90.6633,1023.2,11111222 
LUMCON,ioos:station:LUMCON:101:1,2007-01-11T22:00:00Z,29.2533,-90.6633,1023.3,11111222 
LUMCON,ioos:station:LUMCON:101:1,2007-01-11T23:00:00Z,29.2533,-90.6633,1023.7,11111222 
LUMCON,ioos:station:LUMCON:101:1,2007-01-12T00:00:00Z,29.2533,-90.6633,1023.9,11111222 
LUMCON,ioos:station:LUMCON:101:1,2007-01-12T01:00:00Z,29.2533,-90.6633,1024.1,11111222 
LUMCON,ioos:station:LUMCON:101:1,2007-01-12T02:00:00Z,29.2533,-90.6633,1024.0,11111222 
LUMCON,ioos:station:LUMCON:101:1,2007-01-12T03:00:00Z,29.2533,-90.6633,1024.0,11111222 
LUMCON,ioos:station:LUMCON:101:1,2007-01-12T04:00:00Z,29.2533,-90.6633,1023.7,11111222 
LUMCON,ioos:station:LUMCON:101:1,2007-01-12T05:00:00Z,29.2533,-90.6633,1023.3,11111222 
LUMCON,ioos:station:LUMCON:101:1,2007-01-12T06:00:00Z,29.2533,-90.6633,1023.3,11111222 
LUMCON,ioos:station:LUMCON:101:1,2007-01-12T07:00:00Z,29.2533,-90.6633,1023.1,11111222 
LUMCON,ioos:station:LUMCON:101:1,2007-01-12T08:00:00Z,29.2533,-90.6633,1022.5,11111222 
LUMCON,ioos:station:LUMCON:101:1,2007-01-12T09:00:00Z,29.2533,-90.6633,1022.1,11111222 
LUMCON,ioos:station:LUMCON:101:1,2007-01-12T10:00:00Z,29.2533,-90.6633,1021.9,11111222 
LUMCON,ioos:station:LUMCON:101:1,2007-01-12T11:00:00Z,29.2533,-90.6633,1022.3,11111222 
LUMCON,ioos:station:LUMCON:101:1,2007-01-12T12:00:00Z,29.2533,-90.6633,1023.0,11111222 
LUMCON,ioos:station:LUMCON:101:1,2007-01-12T13:00:00Z,29.2533,-90.6633,1023.5,11111222 
LUMCON,ioos:station:LUMCON:101:1,2007-01-12T14:00:00Z,29.2533,-90.6633,1024.1,11111222 
LUMCON,ioos:station:LUMCON:101:1,2007-01-12T15:00:00Z,29.2533,-90.6633,1024.6,11111222 
LUMCON,ioos:station:LUMCON:101:1,2007-01-12T16:00:00Z,29.2533,-90.6633,1025.2,11111222 
LUMCON,ioos:station:LUMCON:101:1,2007-01-12T17:00:00Z,29.2533,-90.6633,1025.0,11111222 
LUMCON,ioos:station:LUMCON:101:1,2007-01-12T18:00:00Z,29.2533,-90.6633,1024.1,11111222 
LUMCON,ioos:station:LUMCON:101:1,2007-01-12T19:00:00Z,29.2533,-90.6633,1023.3,11111222 
LUMCON,ioos:station:LUMCON:101:1,2007-01-12T20:00:00Z,29.2533,-90.6633,1022.7,11111222 
LUMCON,ioos:station:LUMCON:101:1,2007-01-12T21:00:00Z,29.2533,-90.6633,1022.5,11111222 
LUMCON,ioos:station:LUMCON:101:1,2007-01-12T22:00:00Z,29.2533,-90.6633,1022.6,11111222 
LUMCON,ioos:station:LUMCON:101:1,2007-01-12T23:00:00Z,29.2533,-90.6633,1023.1,11111222 
LUMCON,ioos:station:LUMCON:101:1,2007-01-13T00:00:00Z,29.2533,-90.6633,1023.3,11111222 
LUMCON,ioos:station:LUMCON:101:1,2007-01-13T01:00:00Z,29.2533,-90.6633,1023.6,11111222 
LUMCON,ioos:station:LUMCON:101:1,2007-01-13T02:00:00Z,29.2533,-90.6633,1023.7,11111222 
LUMCON,ioos:station:LUMCON:101:1,2007-01-13T03:00:00Z,29.2533,-90.6633,1024.1,11111222 
LUMCON,ioos:station:LUMCON:101:1,2007-01-13T04:00:00Z,29.2533,-90.6633,1024.5,11111222 
LUMCON,ioos:station:LUMCON:101:1,2007-01-13T05:00:00Z,29.2533,-90.6633,1024.1,11111222 
LUMCON,ioos:station:LUMCON:101:1,2007-01-13T06:00:00Z,29.2533,-90.6633,1023.9,11111222 
LUMCON,ioos:station:LUMCON:101:1,2007-01-13T07:00:00Z,29.2533,-90.6633,1023.6,11111222 
LUMCON,ioos:station:LUMCON:101:1,2007-01-13T08:00:00Z,29.2533,-90.6633,1022.9,11111222 
LUMCON,ioos:station:LUMCON:101:1,2007-01-13T09:00:00Z,29.2533,-90.6633,1022.5,11111222 
LUMCON,ioos:station:LUMCON:101:1,2007-01-13T10:00:00Z,29.2533,-90.6633,1022.5,11111222 
LUMCON,ioos:station:LUMCON:101:1,2007-01-13T11:00:00Z,29.2533,-90.6633,1022.7,11111222 
LUMCON,ioos:station:LUMCON:101:1,2007-01-13T12:00:00Z,29.2533,-90.6633,1022.5,11111222 
LUMCON,ioos:station:LUMCON:101:1,2007-01-13T13:00:00Z,29.2533,-90.6633,1022.9,11111222 
LUMCON,ioos:station:LUMCON:101:1,2007-01-13T14:00:00Z,29.2533,-90.6633,1024.0,11111222 
LUMCON,ioos:station:LUMCON:101:1,2007-01-13T15:00:00Z,29.2533,-90.6633,1025.3,11111222 
LUMCON,ioos:station:LUMCON:101:1,2007-01-13T16:00:00Z,29.2533,-90.6633,1024.5,11111222 
LUMCON,ioos:station:LUMCON:101:1,2007-01-13T17:00:00Z,29.2533,-90.6633,1024.5,11111222 
LUMCON,ioos:station:LUMCON:101:1,2007-01-13T18:00:00Z,29.2533,-90.6633,1023.4,11111222 
LUMCON,ioos:station:LUMCON:101:1,2007-01-13T19:00:00Z,29.2533,-90.6633,1022.5,11111222 
LUMCON,ioos:station:LUMCON:101:1,2007-01-13T20:00:00Z,29.2533,-90.6633,1021.7,11111222 
LUMCON,ioos:station:LUMCON:101:1,2007-01-13T21:00:00Z,29.2533,-90.6633,1021.3,11111222 
LUMCON,ioos:station:LUMCON:101:1,2007-01-13T22:00:00Z,29.2533,-90.6633,1021.1,11111222 
LUMCON,ioos:station:LUMCON:101:1,2007-01-13T23:00:00Z,29.2533,-90.6633,1021.2,11111222 
LUMCON,ioos:station:LUMCON:101:1,2007-01-14T00:00:00Z,29.2533,-90.6633,1021.5,11111222 
LUMCON,ioos:station:LUMCON:101:1,2007-01-14T01:00:00Z,29.2533,-90.6633,1021.6,11111222 
LUMCON,ioos:station:LUMCON:101:1,2007-01-14T02:00:00Z,29.2533,-90.6633,1021.4,11111222 
LUMCON,ioos:station:LUMCON:101:1,2007-01-14T03:00:00Z,29.2533,-90.6633,1021.2,11111222 
LUMCON,ioos:station:LUMCON:101:1,2007-01-14T04:00:00Z,29.2533,-90.6633,1021.4,11111222 
LUMCON,ioos:station:LUMCON:101:1,2007-01-14T05:00:00Z,29.2533,-90.6633,1021.4,11111222 
LUMCON,ioos:station:LUMCON:101:1,2007-01-14T06:00:00Z,29.2533,-90.6633,1021.4,11111222 
LUMCON,ioos:station:LUMCON:101:1,2007-01-14T07:00:00Z,29.2533,-90.6633,1020.5,11111222 
LUMCON,ioos:station:LUMCON:101:1,2007-01-14T08:00:00Z,29.2533,-90.6633,1020.6,11111222 
LUMCON,ioos:station:LUMCON:101:1,2007-01-14T09:00:00Z,29.2533,-90.6633,1020.4,11111222 
LUMCON,ioos:station:LUMCON:101:1,2007-01-14T10:00:00Z,29.2533,-90.6633,1020.3,11111222 
LUMCON,ioos:station:LUMCON:101:1,2007-01-14T11:00:00Z,29.2533,-90.6633,1020.5,11111222 
LUMCON,ioos:station:LUMCON:101:1,2007-01-14T12:00:00Z,29.2533,-90.6633,1020.8,11111222 
LUMCON,ioos:station:LUMCON:101:1,2007-01-14T13:00:00Z,29.2533,-90.6633,1021.1,11111222 
LUMCON,ioos:station:LUMCON:101:1,2007-01-14T14:00:00Z,29.2533,-90.6633,1022.0,11111222 
LUMCON,ioos:station:LUMCON:101:1,2007-01-14T15:00:00Z,29.2533,-90.6633,1022.9,11111222 
LUMCON,ioos:station:LUMCON:101:1,2007-01-14T16:00:00Z,29.2533,-90.6633,1022.0,11111222 
LUMCON,ioos:station:LUMCON:101:1,2007-01-14T17:00:00Z,29.2533,-90.6633,1021.6,11111222 
LUMCON,ioos:station:LUMCON:101:1,2007-01-14T18:00:00Z,29.2533,-90.6633,1020.7,11111222 
LUMCON,ioos:station:LUMCON:101:1,2007-01-14T19:00:00Z,29.2533,-90.6633,1019.5,11111222 
LUMCON,ioos:station:LUMCON:101:1,2007-01-14T20:00:00Z,29.2533,-90.6633,1018.9,11111222 
LUMCON,ioos:station:LUMCON:101:1,2007-01-14T21:00:00Z,29.2533,-90.6633,1018.5,11111222 
LUMCON,ioos:station:LUMCON:101:1,2007-01-14T22:00:00Z,29.2533,-90.6633,1018.3,11111222 
LUMCON,ioos:station:LUMCON:101:1,2007-01-14T23:00:00Z,29.2533,-90.6633,1018.6,11111222 
LUMCON,ioos:station:LUMCON:101:1,2007-01-15T00:00:00Z,29.2533,-90.6633,1019.1,11111222 
LUMCON,ioos:station:LUMCON:101:1,2007-01-15T01:00:00Z,29.2533,-90.6633,1019.4,11111222 
LUMCON,ioos:station:LUMCON:101:1,2007-01-15T02:00:00Z,29.2533,-90.6633,1019.6,11111222 
LUMCON,ioos:station:LUMCON:101:1,2007-01-15T03:00:00Z,29.2533,-90.6633,1019.5,11111222 
LUMCON,ioos:station:LUMCON:101:1,2007-01-15T04:00:00Z,29.2533,-90.6633,1019.8,11111222 
LUMCON,ioos:station:LUMCON:101:1,2007-01-15T05:00:00Z,29.2533,-90.6633,1019.5,11111222 
LUMCON,ioos:station:LUMCON:101:1,2007-01-15T06:00:00Z,29.2533,-90.6633,1019.1,11111222 
LUMCON,ioos:station:LUMCON:101:1,2007-01-15T07:00:00Z,29.2533,-90.6633,1018.8,11111222 
LUMCON,ioos:station:LUMCON:101:1,2007-01-15T08:00:00Z,29.2533,-90.6633,1018.4,11111222 
LUMCON,ioos:station:LUMCON:101:1,2007-01-15T09:00:00Z,29.2533,-90.6633,1018.5,11111222 
LUMCON,ioos:station:LUMCON:101:1,2007-01-15T10:00:00Z,29.2533,-90.6633,1017.8,11111222 
LUMCON,ioos:station:LUMCON:101:1,2007-01-15T11:00:00Z,29.2533,-90.6633,1017.6,11111222 
LUMCON,ioos:station:LUMCON:101:1,2007-01-15T12:00:00Z,29.2533,-90.6633,1018.5,11111222 
LUMCON,ioos:station:LUMCON:101:1,2007-01-15T13:00:00Z,29.2533,-90.6633,1018.3,11111222 
LUMCON,ioos:station:LUMCON:101:1,2007-01-15T14:00:00Z,29.2533,-90.6633,1018.8,11111222 
LUMCON,ioos:station:LUMCON:101:1,2007-01-15T15:00:00Z,29.2533,-90.6633,1019.1,11111222 
LUMCON,ioos:station:LUMCON:101:1,2007-01-15T16:00:00Z,29.2533,-90.6633,1020.0,11111222 
LUMCON,ioos:station:LUMCON:101:1,2007-01-15T17:00:00Z,29.2533,-90.6633,1019.9,11111222 